This demonstration page uses our WeatherBlox Daily Observations layout. Learn more.

Left ArrowRight Arrow

44.8408, -93.29828

Hourly Observations for April 4, 2019

Temp ( °F °C ) Dew Point ( °F °C ) Humidity (%) Winds ( mph kmh ) Pressure ( in mb ) Visibility ( mi km ) Precip ( " mm )
12:53 am 00:53 Cloudy 38 3.3 17 -8.3 43 43 E 5 7 30.33 1027 10 16 0.00 0.00
1:53 am 01:53 Cloudy 34 1.1 17 -8.3 50 50 NE 5 7 30.33 1027 10 16 0.00 0.00
2:53 am 02:53 Cloudy 37 2.8 12 -11.1 36 36 ENE 8 13 30.32 1027 10 16 0.00 0.00
3:53 am 03:53 Cloudy 37 2.8 11 -11.7 34 34 ENE 9 15 30.32 1027 10 16 0.00 0.00
4:53 am 04:53 Cloudy 36 2.2 11 -11.7 35 35 ENE 7 11 30.32 1027 10 16 0.00 0.00
5:53 am 05:53 Mostly Cloudy 35 1.7 13 -10.6 40 40 E 9 15 30.33 1027 10 16 0.00 0.00
6:53 am 06:53 Mostly Cloudy 34 1.1 13 -10.6 42 42 E 12 19 30.34 1027 10 16 0.00 0.00
7:53 am 07:53 Mostly Cloudy 35 1.7 14 -10 42 42 ESE 12 19 30.35 1028 10 16 0.00 0.00
8:53 am 08:53 Cloudy 37 2.8 14 -10 39 39 E 13 20 30.36 1028 10 16 0.00 0.00
9:53 am 09:53 Cloudy 38 3.3 14 -10 37 37 ESE 13 20 30.34 1028 10 16 0.00 0.00
10:53 am 10:53 Cloudy 40 4.4 15 -9.4 36 36 ESE 18 30 30.34 1027 10 16 0.00 0.00
11:53 am 11:53 Cloudy 42 5.6 15 -9.4 33 33 E 14 22 30.32 1027 10 16 0.00 0.00
12:53 pm 12:53 Cloudy 43 6.1 15 -9.4 32 32 E 13 20 30.29 1026 10 16 0.00 0.00
1:53 pm 13:53 Cloudy 44 6.7 16 -8.9 32 32 E 13 20 30.28 1025 10 16 0.00 0.00
2:53 pm 14:53 Cloudy 45 7.2 18 -7.8 34 34 ESE 14 22 30.25 1024 10 16 0.00 0.00
3:53 pm 15:53 Cloudy 44 6.7 25 -3.9 47 47 SSE 17 28 30.23 1024 10 16 0.00 0.00
4:53 pm 16:53 Cloudy 43 6.1 28 -2.2 56 56 ESE 16 26 30.22 1023 10 16 0.00 0.00
5:53 pm 17:53 Cloudy 41 5 31 -0.6 67 67 SE 10 17 30.21 1023 10 16 0.00 0.00
6:05 pm 18:05 Cloudy 41 5 31 -0.6 67 67 SE 15 24 30.22 1023 10 16 0.00 0.00
6:53 pm 18:53 Cloudy 38 3.3 31 -0.6 76 76 SE 15 24 30.21 1023 10 16 0.00 0.00
7:50 pm 19:50 Cloudy with Drizzle 37 3 34 1 87 87 ESE 13 20 30.20 1023 6 10 0.00 0.03
7:53 pm 19:53 Cloudy with Drizzle 37 2.8 33 0.6 86 86 ESE 13 20 30.19 1023 6 10 0.00 0.03
8:53 pm 20:53 Cloudy with Drizzle 36 2.2 33 0.6 89 89 ESE 13 20 30.18 1022 6 10 0.00 0.03
9:50 pm 21:50 Cloudy with Drizzle 36 2 34 1 93 93 ESE 12 19 30.19 1022 6 10 0.00 0.03
9:53 pm 21:53 Cloudy with Drizzle 36 2.2 33 0.6 89 89 SE 12 19 30.17 1022 6 10 0.00 0.03
10:53 pm 22:53 Cloudy with Drizzle 36 2.2 34 1.1 93 93 SE 9 15 30.16 1021 7 11 0.00 0.03
11:01 pm 23:01 Cloudy with Drizzle 36 2.2 34 1.1 93 93 SE 9 15 30.17 1022 8 13 0.00 0.03
11:53 pm 23:53 Cloudy 36 2.2 33 0.6 89 89 SE 10 17 30.14 1021 7 11 0.00 0.03

Powered by AerisWeather